Time,TemperatureF,DewpointF,PressureIn,WindDirection,WindDirectionDegrees,WindSpeedMPH,WindSpeedGustMPH,Humidity,HourlyPrecipIn,Conditions,Clouds,dailyrainin,SoftwareType,DateUTC
2013-07-20 00:32:00,63.0,59.0,-100.00,North,0,6.0,9.0,86,-99.99,,,-99.99,,2013-07-20 05:32:00,
2013-07-20 00:52:00,63.0,59.0,-100.00,North,0,6.0,9.0,86,-99.99,,,-99.99,,2013-07-20 05:52:00,
2013-07-20 01:01:00,63.0,59.0,-100.00,North,0,6.0,9.0,86,-99.99,,,-99.99,,2013-07-20 06:01:00,
2013-07-20 01:43:00,61.0,55.0,-100.00,NNE,20,11.0,12.0,83,-99.99,,,-99.99,,2013-07-20 06:43:00,
2013-07-20 01:52:00,61.0,55.0,-100.00,NNE,20,11.0,12.0,83,-99.99,,,-99.99,,2013-07-20 06:52:00,
2013-07-20 02:01:00,61.0,55.0,-100.00,NNE,20,11.0,12.0,83,-99.99,,,-99.99,,2013-07-20 07:01:00,
2013-07-20 02:44:00,59.0,53.0,-100.00,NNE,20,9.0,10.0,80,-99.99,,,-99.99,,2013-07-20 07:44:00,
2013-07-20 02:54:00,59.0,53.0,-100.00,NNE,20,9.0,10.0,80,-99.99,,,-99.99,,2013-07-20 07:54:00,
2013-07-20 03:01:00,59.0,53.0,-100.00,NNE,20,9.0,10.0,80,-99.99,,,-99.99,,2013-07-20 08:01:00,
2013-07-20 03:44:00,58.0,52.0,-100.00,NNE,15,9.0,11.0,81,-99.99,,,-99.99,,2013-07-20 08:44:00,
2013-07-20 03:52:00,58.0,52.0,-100.00,NNE,15,9.0,11.0,81,-99.99,,,-99.99,,2013-07-20 08:52:00,
2013-07-20 04:02:00,58.0,52.0,-100.00,NNE,15,9.0,11.0,81,-99.99,,,-99.99,,2013-07-20 09:02:00,
2013-07-20 04:43:00,54.0,52.0,-100.00,West,270,4.0,4.0,93,-99.99,,,-99.99,,2013-07-20 09:43:00,
2013-07-20 04:53:00,54.0,52.0,-100.00,West,270,4.0,4.0,93,-99.99,,,-99.99,,2013-07-20 09:53:00,
2013-07-20 05:01:00,54.0,52.0,-100.00,West,270,4.0,4.0,93,-99.99,,,-99.99,,2013-07-20 10:01:00,
2013-07-20 05:42:00,55.0,53.0,-100.00,West,270,4.0,5.0,93,-99.99,,,-99.99,,2013-07-20 10:42:00,
2013-07-20 05:52:00,55.0,53.0,-100.00,West,270,4.0,5.0,93,-99.99,,,-99.99,,2013-07-20 10:52:00,
2013-07-20 06:01:00,55.0,53.0,-100.00,West,270,4.0,5.0,93,-99.99,,,-99.99,,2013-07-20 11:01:00,
2013-07-20 06:10:00,55.0,53.0,-100.00,North,0,6.0,8.0,91,-99.99,,,-99.99,,2013-07-20 11:10:00,
2013-07-20 06:32:00,55.0,53.0,-100.00,North,0,6.0,8.0,91,-99.99,,,-99.99,,2013-07-20 11:32:00,
2013-07-20 06:43:00,55.0,53.0,-100.00,North,0,6.0,8.0,91,-99.99,,,-99.99,,2013-07-20 11:43:00,
2013-07-20 06:52:00,55.0,53.0,-100.00,North,0,6.0,8.0,91,-99.99,,,-99.99,,2013-07-20 11:52:00,
2013-07-20 07:01:00,55.0,53.0,-100.00,North,0,6.0,8.0,91,-99.99,,,-99.99,,2013-07-20 12:01:00,
2013-07-20 07:10:00,54.0,52.0,-100.00,North,10,8.0,9.0,94,-99.99,,,-99.99,,2013-07-20 12:10:00,
2013-07-20 07:52:00,54.0,52.0,-100.00,North,10,8.0,9.0,94,-99.99,,,-99.99,,2013-07-20 12:52:00,
2013-07-20 08:01:00,54.0,52.0,-100.00,North,10,8.0,9.0,94,-99.99,,,-99.99,,2013-07-20 13:01:00,
2013-07-20 08:10:00,55.0,53.0,-100.00,West,270,7.0,7.0,95,-99.99,,,-99.99,,2013-07-20 13:10:00,
2013-07-20 08:43:00,55.0,53.0,-100.00,West,270,7.0,7.0,95,-99.99,,,-99.99,,2013-07-20 13:43:00,
2013-07-20 08:53:00,55.0,53.0,-100.00,West,270,7.0,7.0,95,-99.99,,,-99.99,,2013-07-20 13:53:00,
2013-07-20 09:02:00,55.0,53.0,-100.00,West,270,7.0,7.0,95,-99.99,,,-99.99,,2013-07-20 14:02:00,
2013-07-20 09:11:00,56.0,54.0,-100.00,North,0,6.0,7.0,94,-99.99,,,-99.99,,2013-07-20 14:11:00,
2013-07-20 09:43:00,56.0,54.0,-100.00,North,0,6.0,7.0,94,-99.99,,,-99.99,,2013-07-20 14:43:00,
2013-07-20 09:53:00,56.0,54.0,-100.00,North,0,6.0,7.0,94,-99.99,,,-99.99,,2013-07-20 14:53:00,
2013-07-20 10:01:00,56.0,54.0,-100.00,North,0,6.0,7.0,94,-99.99,,,-99.99,,2013-07-20 15:01:00,
2013-07-20 10:44:00,59.0,55.0,-100.00,West,270,7.0,10.0,87,-99.99,,,-99.99,,2013-07-20 15:44:00,
2013-07-20 10:53:00,59.0,55.0,-100.00,West,270,7.0,10.0,87,-99.99,,,-99.99,,2013-07-20 15:53:00,
2013-07-20 11:01:00,59.0,55.0,-100.00,West,270,7.0,10.0,87,-99.99,,,-99.99,,2013-07-20 16:01:00,
2013-07-20 11:10:00,63.0,56.0,-100.00,NE,35,6.0,9.0,78,-99.99,,,-99.99,,2013-07-20 16:10:00,
2013-07-20 11:43:00,63.0,56.0,-100.00,NE,35,6.0,9.0,78,-99.99,,,-99.99,,2013-07-20 16:43:00,
2013-07-20 11:52:00,63.0,56.0,-100.00,NE,35,6.0,9.0,78,-99.99,,,-99.99,,2013-07-20 16:52:00,
2013-07-20 12:02:00,63.0,56.0,-100.00,NE,35,6.0,9.0,78,-99.99,,,-99.99,,2013-07-20 17:02:00,
2013-07-20 12:10:00,65.0,51.0,-100.00,NE,35,10.0,11.0,60,-99.99,,,-99.99,,2013-07-20 17:10:00,
2013-07-20 12:43:00,65.0,51.0,-100.00,NE,35,10.0,11.0,60,-99.99,,,-99.99,,2013-07-20 17:43:00,
2013-07-20 12:53:00,65.0,51.0,-100.00,NE,35,10.0,11.0,60,-99.99,,,-99.99,,2013-07-20 17:53:00,
2013-07-20 13:01:00,65.0,51.0,-100.00,NE,35,10.0,11.0,60,-99.99,,,-99.99,,2013-07-20 18:01:00,
2013-07-20 13:10:00,67.0,51.0,-100.00,North,10,9.0,12.0,57,-99.99,,,-99.99,,2013-07-20 18:10:00,
2013-07-20 13:47:00,67.0,51.0,-100.00,North,10,9.0,12.0,57,-99.99,,,-99.99,,2013-07-20 18:47:00,
2013-07-20 13:59:00,67.0,51.0,-100.00,North,10,9.0,12.0,57,-99.99,,,-99.99,,2013-07-20 18:59:00,
2013-07-20 14:04:00,67.0,51.0,-100.00,North,10,9.0,12.0,57,-99.99,,,-99.99,,2013-07-20 19:04:00,
2013-07-20 14:10:00,69.0,51.0,-100.00,ENE,60,5.0,6.0,54,-99.99,,,-99.99,,2013-07-20 19:10:00,
2013-07-20 14:44:00,69.0,51.0,-100.00,ENE,60,5.0,6.0,54,-99.99,,,-99.99,,2013-07-20 19:44:00,
2013-07-20 14:56:00,69.0,51.0,-100.00,ENE,60,5.0,6.0,54,-99.99,,,-99.99,,2013-07-20 19:56:00,
2013-07-20 15:05:00,69.0,51.0,-100.00,ENE,60,5.0,6.0,54,-99.99,,,-99.99,,2013-07-20 20:05:00,
2013-07-20 15:10:00,69.0,52.0,-100.00,West,270,6.0,6.0,54,-99.99,,,-99.99,,2013-07-20 20:10:00,
2013-07-20 15:35:00,69.0,52.0,-100.00,West,270,6.0,6.0,54,-99.99,,,-99.99,,2013-07-20 20:35:00,
2013-07-20 15:47:00,69.0,52.0,-100.00,West,270,6.0,6.0,54,-99.99,,,-99.99,,2013-07-20 20:47:00,
2013-07-20 15:57:00,69.0,52.0,-100.00,West,270,6.0,6.0,54,-99.99,,,-99.99,,2013-07-20 20:57:00,
2013-07-20 16:10:00,69.0,52.0,-100.00,NNE,25,11.0,14.0,56,-99.99,,,-99.99,,2013-07-20 21:10:00,
2013-07-20 16:56:00,69.0,52.0,-100.00,NNE,25,11.0,14.0,56,-99.99,,,-99.99,,2013-07-20 21:56:00,
2013-07-20 17:05:00,69.0,52.0,-100.00,NNE,25,11.0,14.0,56,-99.99,,,-99.99,,2013-07-20 22:05:00,
2013-07-20 17:49:00,69.0,52.0,-100.00,North,10,7.0,9.0,55,-99.99,,,-99.99,,2013-07-20 22:49:00,
2013-07-20 17:56:00,69.0,52.0,-100.00,North,10,7.0,9.0,55,-99.99,,,-99.99,,2013-07-20 22:56:00,
2013-07-20 19:10:00,68.0,51.0,-100.00,West,270,4.0,6.0,54,-99.99,,,-99.99,,2013-07-21 00:10:00,
2013-07-20 19:45:00,68.0,51.0,-100.00,West,270,4.0,6.0,54,-99.99,,,-99.99,,2013-07-21 00:45:00,
2013-07-20 19:56:00,68.0,51.0,-100.00,West,270,4.0,6.0,54,-99.99,,,-99.99,,2013-07-21 00:56:00,
2013-07-20 20:06:00,68.0,51.0,-100.00,West,270,4.0,6.0,54,-99.99,,,-99.99,,2013-07-21 01:06:00,
2013-07-20 20:10:00,66.0,53.0,-100.00,West,270,2.0,4.0,64,-99.99,,,-99.99,,2013-07-21 01:10:00,
2013-07-20 20:49:00,-999.0,-99.9,-100.00,West,270,2.0,4.0,-999,-99.99,,,-99.99,,2013-07-21 01:49:00,
2013-07-20 20:59:00,66.0,53.0,-100.00,West,270,2.0,4.0,64,-99.99,,,-99.99,,2013-07-21 01:59:00,
2013-07-20 21:04:00,66.0,53.0,-100.00,West,270,2.0,4.0,64,-99.99,,,-99.99,,2013-07-21 02:04:00,
2013-07-20 21:11:00,62.0,54.0,-100.00,North,355,4.0,5.0,75,-99.99,,,-99.99,,2013-07-21 02:11:00,
2013-07-20 21:46:00,62.0,54.0,-100.00,North,355,4.0,5.0,75,-99.99,,,-99.99,,2013-07-21 02:46:00,
2013-07-20 21:58:00,62.0,54.0,-100.00,North,355,4.0,5.0,75,-99.99,,,-99.99,,2013-07-21 02:58:00,
2013-07-20 22:04:00,62.0,54.0,-100.00,North,355,4.0,5.0,75,-99.99,,,-99.99,,2013-07-21 03:04:00,
2013-07-20 22:10:00,59.0,55.0,-100.00,North,355,3.0,4.0,87,-99.99,,,-99.99,,2013-07-21 03:10:00,
2013-07-20 22:47:00,59.0,55.0,-100.00,North,355,3.0,4.0,87,-99.99,,,-99.99,,2013-07-21 03:47:00,
2013-07-20 23:00:00,59.0,55.0,-100.00,North,355,3.0,4.0,87,-99.99,,,-99.99,,2013-07-21 04:00:00,
2013-07-20 23:01:00,59.0,55.0,-100.00,North,355,3.0,4.0,87,-99.99,,,-99.99,,2013-07-21 04:01:00,
2013-07-20 23:10:00,56.0,54.0,-100.00,North,10,4.0,4.0,93,-99.99,,,-99.99,,2013-07-21 04:10:00,
2013-07-20 23:43:00,56.0,54.0,-100.00,North,10,4.0,4.0,93,-99.99,,,-99.99,,2013-07-21 04:43:00,
2013-07-20 23:53:00,56.0,54.0,-100.00,North,10,4.0,4.0,93,-99.99,,,-99.99,,2013-07-21 04:53:00,